Location: Lincoln
(40.8000°N, 96.6670°W)
Time: 15:58:00
(UTC-05:00)

BlueWalker 3 - Pass Details

Date: 02 February 2023
Orbit: 497 x 514 km, 53.2° (Epoch: 28 March)

Event Time Altitude Azimuth Distance (km) Brightness Sun altitude
Rises 19:08:23 0° 300° (WNW) 2,601 6.4 -16.0°
Reaches altitude 10° 19:11:36 10° 329° (NNW) 1,722 4.9 -16.6°
Maximum altitude 19:13:31 13° 359° (N) 1,535 4.3 -17.0°
Enters shadow 19:14:36 12° 16° (NNE) 1,600 4.2 -17.2°
